Weather Roundup
Issued by NWS Chicago, IL

Home | Current Version | Previous Version | Graphics & Text | Print | Product List | Glossary On
Versions: 1 2 3 4 5 6 7 8 9 10 11 12 13 14 15 16 17 18 19 20 21 22 23 24 25 26 27 28 29 30 31 32 33 34 35 36 37 38 39 40 41 42 43 44 45 46 47 48 49 50
457
NZUS59 KLOT 251209
HRRLOT

CHICAGO AREA WEATHER ROUNDUP
NATIONAL WEATHER SERVICE CHICAGO/ROMEOVILLE IL
700 AM CDT SUN JUN 25 2017

NOTE: "FAIR" INDICATES FEW OR NO CLOUDS BELOW 12,000 FEET WITH NO
SIGNIFICANT WEATHER AND/OR OBSTRUCTIONS TO VISIBILITY.

* THESE STATIONS ARE NOT UNDER NWS QUALITY CONTROL. THEY ALSO MAY NOT
  REPORT WEATHER SUCH AS PRECIPITATION OR FOG.

ILZ005-006-012>014-019>023-251300-
NORTHEAST ILLINOIS

CITY           SKY/WX    TMP DP  RH WIND       PRES   REMARKS
OHARE          MOSUNNY   57  48  72 W10       30.08R
6HR MIN TEMP:  54; 6HR MAX TEMP:  59;

MIDWAY         SUNNY     59  48  67 W13       30.09R
6HR MIN TEMP:  56; 6HR MAX TEMP:  63;

AURORA         SUNNY     55  51  86 SW7       30.12R
6HR MIN TEMP:  49; 6HR MAX TEMP:  55;

LANSING*       SUNNY     58  47  67 W9        30.11S
JOLIET*        SUNNY     59  51  73 W6        30.12R
WAUKEGAN       SUNNY     57  50  77 W7        30.06R
6HR MIN TEMP:  53; 6HR MAX TEMP:  57;

DUPAGE AIRPORT SUNNY     56  51  84 W8        30.10R
6HR MIN TEMP:  51; 6HR MAX TEMP:  57;

WHEELING       SUNNY     57  50  77 W10       30.09R
6HR MIN TEMP:  54; 6HR MAX TEMP:  59;

MORRIS*        SUNNY     57  50  78 W8        30.11S
LEWIS AIRPORT* MOSUNNY   58  48  69 W9        30.11S
NORTHERLY ISL    N/A     59  46  62 SW7         N/A
$$

WIZ051-052-058>065-066-070>072-251300-
SOUTHEAST WISCONSIN

CITY           SKY/WX    TMP DP  RH WIND       PRES   REMARKS
MILWAUKEE      MOSUNNY   57  49  74 W12       30.04R
6HR MIN TEMP:  53; 6HR MAX TEMP:  57;

KENOSHA*       SUNNY     55  50  83 W9        30.06R
RACINE*        SUNNY     55  49  80 W10       30.06S
WAUKESHA       SUNNY     52  48  87 W13G18    30.05R
WEST BEND      SUNNY     54  48  82 W13G18    30.03R
$$

INZ001>003-010>013-019-020-251300-
NORTHWEST INDIANA

CITY           SKY/WX    TMP DP  RH WIND       PRES   REMARKS
GARY*          SUNNY     61  46  59 W10       30.10S
MICHIGAN CITY* NOT AVBL
RENSSELAER*    NOT AVBL
VALPARAISO     SUNNY     60  48  64 W10       30.10R
$$

LMZ740>746-251300-
SOUTHERN LAKE MICHIGAN

STATION/POSITION TIME  SKY/WX   TEMP WIND        PRES    VSBY
                                AIR  DIR/SP/G
                 (UTC)          (F)  (DEG/KT/KT) (MB)    (MI)
HARRISON CRIB    1130            59  260/ 16/ 19   N/A
BURNHAM HARBOR   1200            59                N/A
CALUMET HARBOR   1142            59  250/  5/  9 1018.4R
BURNS HARBOR     1140            61  270/ 13/ 18 1019.3R
MICHIGAN CITY    1130            61  270/ 18/ 19   N/A
$$

ABBREVIATIONS USED IN REMARKS
   TC - TEMPERATURE IN CELSIUS
  WCI - WIND CHILL INDEX
   HX - HEAT INDEX
  VSB - VISIBILITY
$$




USA.gov is the U.S. government's official web portal to all federal, state and local government web resources and services.